Regional Weather Roundup
Issued by NWS

Home | Current Version | Previous Version | Graphics & Text | Print | Product List | Glossary On
Versions: 1 2 3 4 5 6 7 8 9 10 11 12 13 14 15 16 17 18 19 20 21 22 23 24 25 26 27 28 29 30 31 32 33 34 35 36 37 38 39 40 41 42 43 44 45 46 47 48 49 50
892
ASUS43 KTOP 232259
RWRKS

WEATHER ROUNDUP FOR KANSAS
NATIONAL WEATHER SERVICE GOODLAND KS
600 PM CDT FRI JUN 23 2017

NOTE:  "FAIR" INDICATES FEW OR NO CLOUDS BELOW 12,000 FEET WITH NO
SIGNIFICANT WEATHER AND/OR OBSTRUCTIONS TO VISIBILITY.

KSZ001>006-013>018-027>032-041>047-240000-
NORTHWEST KANSAS

CITY           SKY/WX    TMP DP  RH WIND       PRES   REMARKS
GOODLAND       CLOUDY    68  49  50 SW9       30.16F
HAYS           PTSUNNY   77  48  35 VRB3      30.08F
HILL CITY      MOSUNNY   81  44  27 VRB5      30.08S
RUSSELL        PTSUNNY   80  47  31 NW9       30.05F
$$

KSZ061>065-074>080-084>089-240000-
SOUTHWEST KANSAS

CITY           SKY/WX    TMP DP  RH WIND       PRES   REMARKS
DODGE CITY     CLOUDY    71  46  40 N12       30.12S
ELKHART          N/A     72  43  35 N9          N/A
GARDEN CITY    PTSUNNY   72  45  37 NE14      30.13F
GREAT BEND     PTSUNNY   77  48  35 NW7       30.07F
LIBERAL        MOSUNNY   75  49  39 N16       30.12
$$

KSZ066>073-081>083-090>101-240000-
SOUTHEAST KANSAS

CITY           SKY/WX    TMP DP  RH WIND       PRES   REMARKS
CHANUTE        SUNNY     83  55  38 N15G26    29.95S
COFFEYVILLE    SUNNY     86  56  35 N16G25    29.93R
HUTCHINSON     PTSUNNY   79  48  33 N12       30.03F
MEDICINE LODGE   N/A     75  47  36 N15G23    30.04S
NEWTON         PTSUNNY   79  48  33 N13       30.03S
PARSONS        SUNNY     84  52  33 N13G20    29.95R
WICHITA INTL   MOSUNNY   78  49  35 N14       30.01S
WICHITA JABRA  MOSUNNY   78  50  37 N13       30.02R
WINFIELD       CLOUDY    78  54  43 N20       30.01S
$$

KSZ007>012-019>026-033>040-048>060-102>105-240000-
NORTHEAST KANSAS

CITY           SKY/WX    TMP DP  RH WIND       PRES   REMARKS
CONCORDIA      SUNNY     80  49  33 N10G21    30.03F
EMPORIA        SUNNY     79  52  38 N9        30.00S
LAWRENCE       SUNNY     79  54  41 NW8       29.98R
MANHATTAN      SUNNY     81  51  35 N7        30.00F
OLATHE IND     SUNNY     78  50  37 NW16G22   29.98R
OLATHE EXE     SUNNY     79  53  40 N10       29.96S
SALINA         SUNNY     84  46  26 N12       30.02F
TOPEKA BILLARD SUNNY     79  55  43 N9        29.98F
TOPEKA FORBES  SUNNY     80  52  37 N15       29.99S
$$




USA.gov is the U.S. government's official web portal to all federal, state and local government web resources and services.